Погода Борзя

Погода Борзя : погода сейчас, прогноз погоды и архив. Всё, что Вы хотите узнать о погоде Борзя!

Хотите узнать прогноз погоды Борзя? Тогда Вам сюда: Погода Борзя

Поиск расширенной информации на нашем сайте:

Другие новости

Новости СМИ2

Главная страница сайта

Новости сайта

02.10.2013

Напоминаем, что на нашем новом сайте вы можете получить высокодетализированные прогнозы погоды по пунктам России, СНГ и мира (включающие важные для авиации метеовеличины, такие как направление и скорость ветра, видимость, явления погоды, количество и форма облачности, нижняя и верхняя граница облачности), а также ознакомиться с разнообразными материалами по авиационной метеорологии и подборкой полезных ссылок на эту тему.

Сайт Метеоцентр.Азия посвящён разработке технологий оптимизации авиаметеорологического обслуживания, включая проектирование и перспективное создание нескольких автоматизированных авиаметеорологических систем:
- система выпуска высокодетальных прогностических карт явлений погоды для нижнего воздушного пространства по России и ближнему зарубежью;
- система верификации прогнозов TAF (выпускаемых синоптиками официальных АМСГ РФ и ближнего зарубежья) и AUTOTAF (выпускаемых сайтом Метеоцентр.Азия) - выявление ошибок, онлайн-сопоставление с фактической погодой METAR, автоматическое внесение коррективов в прогнозы при резком отклонении фактической погоды от прогноза, подсчёт оправдываемости прогнозов по элементам и в целом;
- система обработки, анализа и отображения авиаметеорологической информации для применения провайдерами метеорологической информации.


Погода Борзя - сегодня

Время (UTC), дата Ветер
(°,м/с) 
Видим.   Явления Облачность Т
(°С)
Тd
(°С)
f(%) Тe
(°С)
Pmin
(гПа)
dP
(гПа)
Po
(мм)
O2
(г/м3)
Тmin Tmax R s Состояние
почвы
06 20.06.17 060 (СВ) 7-12{14}  20000 м    4/1 600 м верхняя 
[Cu med, cong|Ci fib]
+26.1 -2 16 +26  1005.1  -0.9  698  257           
09 20.06.17 060 (СВ) 5{12}  20000 м    8/3 600 м кучево-дожд., верхняя 
[Cb calv|Ci fib]
+26.4 +0.2 18 +26  1004.8  -0.1  698  256           
12 20.06.17 110 (В) 2{10}  20000 м    3/1 1000 м кучево-дожд., верхняя 
[Cb calv|Ci sp]
+23.5 +2.8 26 +24  1006.3  0.7  699  259    +26.7       
15 20.06.17 080 (В) н/о    3/0 верхняя 
[Ci sp]
+11.4 +4.1 61 +13  1011.1  1.4  700  270           
18 20.06.17 080 (В) н/о    3/0 верхняя 
[Ci sp]
+11.7 +4.1 60 +12  1012.5  1.4  701  270           
21 20.06.17 070 (В) 20000 м    4/1 600 м верхняя 
[Sc diur, vesp|Ci sp]
+8.3 +4.5 77 +8  1014.5  0.9  702  274           
00 21.06.17 070 (В) 20000 м    4/1 1000 м верхняя 
[Cu hum|Ci sp]
+20.2 +8.1 46 +20  1011.5  0.4  702  262  +7.8        сухая 
03 21.06.17 050 (СВ) 20000 м    8/5 1000 м кучево-дожд., верхняя 
[Cb calv|Ci sp]
+24.6 +4.4 27 +25  1009.8  -0.6  701  259           
06 21.06.17 060 (СВ) 20000 м    9/8 1000 м кучево-дожд., верхняя 
[Cb calv|Ci sp]
+26 +0.6 19 +26  1007.7  -1.6  700  257           
09 21.06.17 040 (СВ) 20000 м    6/4 1000 м кучево-дожд., средняя, верхняя 
[Cb calv|Ac lent|Ci sp]
+28.2 -1.3 15 +28  1006.1  -1.1  699  255           
12 21.06.17 тихо ()   20000 м    3/1 1000 м верхняя 
[Cu hum|Ci sp]
+27.8 +11 35 +32  1006.3  -0.2  700  254    +28.3       
15 21.06.17 080 (В) н/о    3/0 верхняя 
[Ci sp]
+14.9 +4.1 48 +16  1010.7  0.9  700  267           
18 21.06.17 060 (СВ) н/о    8/0 средняя, верхняя 
[Ac lent|Ci sp]
+8.8 +3.4 69 +9  1012.9  0.5  701  273           
21 21.06.17 070 (В) 20000 м    4/0 средняя, верхняя 
[Ac lent|Ci sp]
+8.2 +3.5 72 +8  1013.7  0.6  701  274           
00 22.06.17 080 (В) 20000 м    3/0 верхняя 
[Ci fib]
+20.7 +5 36 +21  1010.6  0.3  701  262  +6.6        сухая 
03 22.06.17 300 (СЗ) 20000 м    3/3 1000 м верхняя 
[Cu hum|Ci fib]
+28.5 -0.2 15 +29  1007.8  -0.8  701  256           
06 22.06.17 080 (В) 20000 м    4/3 1000 м верхняя 
[Cu hum|Ci fib]
+30.1 +0 14 +30  1005.8  -1.5  700  254           
09 22.06.17 030 (СВ) 20000 м    5/3 1000 м верхняя 
[Cu med, cong|Ci fib]
+30.7 -0.5 13 +31  1004.3  -1.3  699  253           
12 22.06.17 350 (С) 20000 м    9/5 1000 м средняя, верхняя 
[Sc diur, vesp|Ac cuf|Ci sp]
+27.2 +3.2 21 +27  1005.4  0.3  699  256    +31.5       
15 22.06.17 080 (В) н/о    9/5 1000 м средняя, верхняя 
[Sc|Ac cuf|Ci sp]
+18.7 +8.3 51 +20  1008.7  1.1  700  262           
18 22.06.17 070 (В) н/о    9/3 600 м кучево-дожд., средняя, верхняя 
[Cb calv|Ac lent|Ci sp]
+13.1 +6.7 65 +14  1010  -0.2  700  268           
21 22.06.17 070 (В) 20000 м    9/6 1000 м верхняя 
[Sc|Ci sp]
+17.2 +8.7 57 +19  1009.3  -0.2  700  264           
00 23.06.17 080 (В) 20000 м    3/0 средняя, верхняя 
[Ac trans|Ci fib]
+25 +7.9 34 +25  1007.3  0.1  700  257  +13        сухая 
03 23.06.17 040 (СВ) 20000 м    5/4 600 м кучево-дожд., верхняя 
[Cb calv|Ci fib]
+30.9 +5.1 20 +31  1004.8  -1  699  252           
06 23.06.17 130 (ЮВ) 20000 м    9/6 600 м кучево-дожд., верхняя 
[Cb calv|Ci sp]
+32 +4.7 18 +32  1002.9  -1.4  698  251           
Время (UTC), дата Ветер
(°,м/с) 
Видим.   Явления Облачность Т
(°С)
Тd
(°С)
f(%) Тe
(°С)
Pmin
(гПа)
dP
(гПа)
Po
(мм)
O2
(г/м3)
Тmin Tmax R s Состояние
почвы

Для получения пояснительной информации подведите курсор к названию столбца.

ПОГОДА Борзя - архив

Всё, что Вы хотите узнать о погоде Борзя - удобно и подробно!

Выберите нужную дату (начиная с 1 января 2015* года) и нажмите кнопку "Найти".
Будут отображены архивные сводки погоды по пункту Борзя, начиная с указанной даты.


Отображать данные в формате CSV (для использования в таблицах Excel)


Внимание! Наш архив погоды предназначен исключительно для личного некоммерческого использования в познавательных целях. Если Вам необходимы официальные справки о состоянии погоды (для производственных, юридических, коммерческих и т.п. целей), обращайтесь в органы Росгидромета.

*Примечание: данная дата относится к архиву по метеостанциям СССР (Россия, СНГ, Балтия).
Архив по метеостанциям Зарубежной Европы и Азии (кроме Китая) хранится 10 дней, по другим регионам земного шара (Китай, Африка, Америка, Австралия, Океания) - 1 день.

Борзя - район местоположения метеостанции


Название, широта, долгота, высота метеостанции:
Борзя 50.4°ш. 116.5°д. 676 м над ур. моря [Российская Федерация]

Дополнительная информация

В oтличие oт бoльшинства пoгoдных сайтoв мы публикуем пoдрoбную метеoинфoрмацию в детальнoм прoфессиoнальнoм фoрмате.

Характеристики температуры и влажнoсти вoздуха измеряются на высoте 2 м в тени вдали oт зданий и деревьев.
Скoрoсть ветра измеряется на высoте 10 м (на урoвне рoста челoвека скoрoсть ветра ниже в 1.5-2 раза). Если метеoстанция нахoдится в гoрoде или в лесу, тo скoрoсть ветра занижена на 2-4 м/с пo сравнению с oткрытым местoм. Скoрoсть ветра над акватoриями крупных рек и oзёр, а также на вершинах хoлмoв на 2-5 м/с выше, чем в oбычных услoвиях.
Атмoсфернoе давление в разных тoчках местнoсти мoжет значительнo oтличаться oт давления на метеoстанции, в зависимoсти oт услoвий рельефа (при пoдъёме на 10 м давление пoнижается примернo на 1 мм рт.ст.).